Regional Weather Roundup
Issued by NWS

Home | Current Version | Previous Version | Text Only | Print | Product List | Glossary On
Versions: 1 2 3 4 5 6 7 8 9 10 11 12 13 14 15 16 17 18 19 20 21 22 23 24 25 26 27 28 29 30 31 32 33 34 35 36 37 38 39 40 41 42 43 44 45 46 47 48 49 50
000
ASCA42 TJSJ 081710
RWRPR
PUERTO RICO/U.S. VIRGIN ISLANDS HOURLY WEATHER ROUNDUP
NATIONAL WEATHER SERVICE SAN JUAN PR
100 PM AST THU DEC 08 2016

PRZ001>002-007>008-010-081800-
PUERTO RICO

CITY           SKY/WX    TMP DP  RH WIND       PRES   REMARKS
SAN JUAN LMM   MOSUNNY   84  70  61 E13       30.03F
AGUADILLA      PTSUNNY   82  68  61 E15       30.04F
CEIBA          SUNNY     84  72  65 NE12      30.05F
$$

VIZ001>002-081800-
U.S. VIRGIN ISLANDS

CITY           SKY/WX    TMP DP  RH WIND       PRES   REMARKS
CHARLOTTE AMA  PTSUNNY   84  72  65 NE15G22   30.01F
CHRISTIANSTED  MOSUNNY   84  72  65 NE14      30.02F
$$

HOURLY WEATHER ROUNDUP FOR THE NEWS MEDIA

CITY           SKY/WX    TMP DP  RH WIND       PRES   REMARKS
ORLANDO        SUNNY     67  55  65 CALM      30.15F
NEW YORK       CLOUDY    44  26  49 W15       29.94F
NEWARK         CLOUDY    43  25  49 SW12      29.92F
CHICAGO        PTSUNNY   19  10  68 W20       30.27S WCI   3
HARTFORD       CLOUDY    45  38  76 W7        29.84F
BOSTON         CLOUDY    41  33  73 SW10      29.83F
DALLAS         CLOUDY    35  20  54 N15G22    30.67S WCI  25
PHILADELPHIA   CLOUDY    44  27  51 SW10      29.97F
LOS ANGELES    PTSUNNY   59  46  62 NE3       30.25R
WASHINGTON DC  PTSUNNY   44  24  45 W10       30.02F


USA.gov is the U.S. government's official web portal to all federal, state and local government web resources and services.